Weather History for Prague, Czech Republic

Change the Weather History Date:

Monday, February 10, 2014

  Actual Average Record
Temperature  
Mean Temperature 36 °F -  
Max Temperature 42 °F 40 °F 53 °F (1998)
Min Temperature 30 °F 26 °F 0 °F (2012)
Degree Days  
Heating Degree Days 29    
Moisture  
Dew Point 29 °F    
Average Humidity 77    
Maximum Humidity 93    
Minimum Humidity 42    
Precipitation  
Precipitation 0.00 in 0.03 in - ()
Sea Level Pressure  
Sea Level Pressure 29.56 in    
Wind  
Wind Speed 9 mph ()    
Max Wind Speed 16 mph    
Max Gust Speed -    
Visibility 8.8 miles    
Events      
Averages and records for this station are not official NWS values.
T = Trace of Precipitation, MM = Missing Value Source: Averaged Metar Reports

Daily Weather History Graph

Daily Weather History Graph

Search for Another Location

Airport:

Trip Planner

Search our weather history database for the weather conditions in past years. The results will help you decide how hot, cold, wet, or windy it might be!

Date:

Astronomy

Feb. 10, 2014 Rise Set
Actual Time 7:22 AM CET 5:12 PM CET
Civil Twilight 6:48 AM CET 5:46 PM CET
Nautical Twilight 6:10 AM CET 6:24 PM CET
Astronomical Twilight 5:33 AM CET 7:02 PM CET
Moon 1:16 PM CET (2/10) 4:13 AM CET (2/10)
Length of Visible Light 10h 57m
Length of Day
9h 49m
Waxing Gibbous, 82% of the Moon is Illuminated
Feb 10
Waxing Gibbous
Feb 15
Full
Feb 22
Last Quarter
Mar 1
New
Mar 8
First Quarter

Hourly Weather History & Observations

Time (CET) Temp. Windchill Dew Point Humidity Pressure Visibility Wind Dir Wind Speed Gust Speed Precip Events Conditions
12:00 AM 33 °F - 30 °F 82% 29.67 in 37 mi SW 11.2 mph - -   Scattered Clouds
12:00 AM 33.8 °F 24.8 °F 28.4 °F 81% 29.62 in - SSW 12.7 mph - N/A   Clear
12:30 AM 33.8 °F 24.8 °F 30.2 °F 87% 29.59 in - SW 12.7 mph - N/A   Clear
1:00 AM 33 °F - 29 °F 81% 29.69 in 37 mi WSW 6.7 mph - -   Partly Cloudy
1:00 AM 33.8 °F 26.4 °F 30.2 °F 87% 29.62 in 6.2 mi SW 9.2 mph - N/A   Scattered Clouds
1:30 AM 33.8 °F 26.4 °F 30.2 °F 87% 29.62 in 6.2 mi SSW 9.2 mph - N/A   Partly Cloudy
2:00 AM 33 °F - 29 °F 80% 29.70 in 37 mi SW 8.9 mph - -   Partly Cloudy
2:00 AM 32.0 °F 22.5 °F 28.4 °F 87% 29.62 in 6.2 mi SW 12.7 mph - N/A   Scattered Clouds
2:30 AM 30.2 °F 20.2 °F 28.4 °F 93% 29.62 in 6.2 mi SSW 12.7 mph - N/A   Scattered Clouds
3:00 AM 31 °F - 28 °F 86% 29.69 in 31 mi SSW 8.9 mph - -   Scattered Clouds
3:00 AM 30.2 °F 21.3 °F 28.4 °F 93% 29.62 in - SSW 10.4 mph - N/A   Clear
3:30 AM 32.0 °F 24.2 °F 28.4 °F 87% 29.62 in - South 9.2 mph - N/A   Clear
4:00 AM 32 °F - 29 °F 83% 29.68 in 31 mi SSW 13.4 mph - -   Scattered Clouds
4:00 AM 32.0 °F 22.5 °F 28.4 °F 87% 29.62 in - SSW 12.7 mph - N/A   Clear
4:30 AM 32.0 °F 23.0 °F 28.4 °F 87% 29.62 in - SSW 11.5 mph - N/A   Clear
5:00 AM 31 °F - 28 °F 83% 29.70 in 31 mi South 6.7 mph - -  
5:00 AM 30.2 °F 25.4 °F 28.4 °F 93% 29.62 in - SSW 4.6 mph - N/A   Clear
5:30 AM 30.2 °F 21.9 °F 28.4 °F 93% 29.62 in - South 9.2 mph - N/A   Clear
6:00 AM 30 °F - 28 °F 86% 29.71 in 31 mi SW 8.9 mph - -  
6:00 AM 30.2 °F 21.9 °F 28.4 °F 93% 29.65 in - SSW 9.2 mph - N/A   Clear
6:30 AM 30.2 °F 21.9 °F 28.4 °F 93% 29.65 in - SSW 9.2 mph - N/A   Clear
7:00 AM 30 °F - 28 °F 86% 29.71 in 31 mi South 6.7 mph - -  
7:00 AM 30.2 °F 23.4 °F 28.4 °F 93% 29.62 in - South 6.9 mph - N/A   Clear
7:30 AM 30.2 °F 24.3 °F 26.6 °F 86% 29.62 in - SSE 5.8 mph - N/A   Clear
8:00 AM 31 °F - 28 °F 86% 29.72 in 31 mi South 4.5 mph - -   Clear
8:00 AM 30.2 °F 24.3 °F 28.4 °F 93% 29.65 in - SSE 5.8 mph - N/A   Clear
8:30 AM 30.2 °F 23.4 °F 26.6 °F 86% 29.62 in - SE 6.9 mph - N/A   Clear
9:00 AM 34 °F - 30 °F 79% 29.69 in 37 mi ESE 6.7 mph - -   Clear
9:00 AM 33.8 °F 28.6 °F 30.2 °F 87% 29.62 in - ESE 5.8 mph - N/A   Clear
9:30 AM 35.6 °F 29.9 °F 30.2 °F 81% 29.62 in - East 6.9 mph - N/A   Clear
10:00 AM 36 °F - 31 °F 74% 29.68 in 37 mi SSE 6.7 mph - -   Clear
10:00 AM 35.6 °F 29.2 °F 30.2 °F 81% 29.62 in - SSE 8.1 mph - N/A   Clear
10:30 AM 37.4 °F 32.1 °F 30.2 °F 75% 29.62 in - SE 6.9 mph - N/A   Clear
11:00 AM 40 °F - 31 °F 59% 29.66 in 31 mi SSE 6.7 mph - -   Clear
11:00 AM 39.2 °F 33.6 °F 30.2 °F 70% 29.62 in - SE 8.1 mph - N/A   Clear
11:30 AM 41.0 °F 35.8 °F 30.2 °F 65% 29.59 in - SE 8.1 mph - N/A   Clear
12:00 PM 41 °F - 29 °F 51% 29.62 in 31 mi ESE 11.2 mph - -   Scattered Clouds
12:00 PM 41.0 °F 35.2 °F 28.4 °F 61% 29.56 in - ESE 9.2 mph - N/A   Clear
12:30 PM 42.8 °F 36.2 °F 28.4 °F 57% 29.56 in - East 12.7 mph - N/A   Clear
1:00 PM 42 °F - 29 °F 47% 29.57 in 31 mi East 13.4 mph - -   Clear
1:00 PM 41.0 °F 33.5 °F 28.4 °F 61% 29.53 in - East 13.8 mph - N/A   Clear
1:30 PM 42.8 °F 38.0 °F 28.4 °F 57% 29.53 in - ESE 8.1 mph - N/A   Clear
2:00 PM 41 °F - 32 °F 61% 29.56 in 31 mi ENE 11.2 mph - -   Clear
2:00 PM 41.0 °F 34.3 °F 32.0 °F 70% 29.50 in - East 11.5 mph - N/A   Clear
2:30 PM 41.0 °F 33.9 °F 32.0 °F 70% 29.50 in - East 12.7 mph - N/A   Clear
3:00 PM 41 °F - 32 °F 61% 29.51 in 31 mi East 13.4 mph - -   Clear
3:00 PM 41.0 °F 33.1 °F 32.0 °F 70% 29.47 in - East 15.0 mph - N/A   Clear
3:30 PM 41.0 °F 34.7 °F 30.2 °F 65% 29.47 in - East 10.4 mph - N/A   Clear
4:00 PM 42 °F - 27 °F 42% 29.52 in 31 mi ESE 15.7 mph - -   Partly Cloudy
4:00 PM 42.8 °F 35.1 °F 26.6 °F 53% 29.47 in - ESE 16.1 mph - N/A   Clear
4:30 PM 41.0 °F 34.7 °F 30.2 °F 65% 29.44 in - East 10.4 mph - N/A   Clear
5:00 PM 41 °F - 28 °F 47% 29.50 in 31 mi East 13.4 mph - -   Mostly Cloudy
5:00 PM 41.0 °F 33.9 °F 26.6 °F 57% 29.44 in - ESE 12.7 mph - N/A   Clear
5:30 PM 39.2 °F 31.2 °F 28.4 °F 65% 29.44 in - ESE 13.8 mph - N/A   Clear
6:00 PM 39 °F - 29 °F 57% 29.48 in 31 mi ESE 13.4 mph - -   Mostly Cloudy
6:00 PM 39.2 °F 31.2 °F 28.4 °F 65% 29.44 in - ESE 13.8 mph - N/A   Clear
6:30 PM 39.2 °F 33.0 °F 30.2 °F 70% 29.44 in - ESE 9.2 mph - N/A   Clear
7:00 PM 37 °F - 30 °F 69% 29.50 in 31 mi East 8.9 mph - -   Overcast
7:00 PM 37.4 °F 30.8 °F 30.2 °F 75% 29.44 in - ESE 9.2 mph - N/A   Clear
7:30 PM 35.6 °F 29.9 °F 30.2 °F 81% 29.44 in - East 6.9 mph - N/A   Clear
8:00 PM 34 °F - 30 °F 79% 29.50 in 31 mi East 6.7 mph - -   Scattered Clouds
8:00 PM 33.8 °F 28.6 °F 30.2 °F 87% 29.44 in - East 5.8 mph - N/A   Clear
8:30 PM 33.8 °F 27.7 °F 30.2 °F 87% 29.44 in - ENE 6.9 mph - N/A   Clear
9:00 PM 33 °F - 30 °F 85% 29.51 in 31 mi East 6.7 mph - -   Mostly Cloudy
9:00 PM 33.8 °F 28.6 °F 30.2 °F 87% 29.44 in - East 5.8 mph - N/A   Clear
9:30 PM 33.8 °F 29.6 °F 32.0 °F 93% 29.44 in - East 4.6 mph - N/A   Clear
10:00 PM 34 °F - 31 °F 86% 29.49 in 25 mi East 6.7 mph - -   Mostly Cloudy
10:00 PM 33.8 °F 28.6 °F 32.0 °F 93% 29.42 in - East 5.8 mph - N/A   Clear
10:30 PM 35.6 °F - 32.0 °F 87% 29.44 in - SE 2.3 mph - N/A   Clear
11:00 PM 34 °F - 31 °F 86% 29.50 in 19 mi SSE 2.2 mph - -   Mostly Cloudy
11:00 PM 33.8 °F 30.8 °F 32.0 °F 93% 29.44 in - SSE 3.5 mph - N/A   Clear
11:30 PM 33.8 °F - 32.0 °F 93% 29.44 in - Variable 2.3 mph - N/A   Clear